Year,Month,Day,Hour,Minute,Value (Times are PST for temperature in C)
2012,06,15,00,00,9.60
2012,06,15,00,01,9.60
2012,06,15,00,02,9.60
2012,06,15,00,03,9.60
2012,06,15,00,04,9.60
2012,06,15,00,05,9.60
2012,06,15,00,06,9.60
2012,06,15,00,07,9.50
2012,06,15,00,08,9.50
2012,06,15,00,09,9.40
2012,06,15,00,10,9.40
2012,06,15,00,11,9.30
2012,06,15,00,12,9.20
2012,06,15,00,13,9.20
2012,06,15,00,14,9.20
2012,06,15,00,15,9.10
2012,06,15,00,16,9.00
2012,06,15,00,17,9.00
2012,06,15,00,18,8.90
2012,06,15,00,19,8.80
2012,06,15,00,20,8.80
2012,06,15,00,21,8.80
2012,06,15,00,22,8.70
2012,06,15,00,23,8.70
2012,06,15,00,24,8.60
2012,06,15,00,25,8.60
2012,06,15,00,26,8.60
2012,06,15,00,27,8.60
2012,06,15,00,28,8.50
2012,06,15,00,29,8.50
2012,06,15,00,30,8.50
2012,06,15,00,31,8.40
2012,06,15,00,32,8.40
2012,06,15,00,33,8.40
2012,06,15,00,34,8.40
2012,06,15,00,35,8.30
2012,06,15,00,36,8.30
2012,06,15,00,37,8.20
2012,06,15,00,38,8.20
2012,06,15,00,39,8.10
2012,06,15,00,40,8.10
2012,06,15,00,41,8.10
2012,06,15,00,42,8.00
2012,06,15,00,43,8.00
2012,06,15,00,44,8.00
2012,06,15,00,45,7.90
2012,06,15,00,46,7.90
2012,06,15,00,47,7.90
2012,06,15,00,48,7.90
2012,06,15,00,49,7.90
2012,06,15,00,50,7.90
2012,06,15,00,51,7.80
2012,06,15,00,52,7.80
2012,06,15,00,53,7.80
2012,06,15,00,54,7.70
2012,06,15,00,55,7.70
2012,06,15,00,56,7.70
2012,06,15,00,57,7.70
2012,06,15,00,58,7.60
2012,06,15,00,59,7.60
2012,06,15,01,00,7.60
2012,06,15,01,01,7.60
2012,06,15,01,02,7.60
2012,06,15,01,03,7.60
2012,06,15,01,04,7.50
2012,06,15,01,05,7.60
2012,06,15,01,06,7.60
2012,06,15,01,07,7.50
2012,06,15,01,08,7.50
2012,06,15,01,09,7.50
2012,06,15,01,10,7.50
2012,06,15,01,11,7.50
2012,06,15,01,12,7.50
2012,06,15,01,13,7.50
2012,06,15,01,14,7.50
2012,06,15,01,15,7.40
2012,06,15,01,16,7.40
2012,06,15,01,17,7.40
2012,06,15,01,18,7.40
2012,06,15,01,19,7.40
2012,06,15,01,20,7.30
2012,06,15,01,21,7.30
2012,06,15,01,22,7.30
2012,06,15,01,23,7.30
2012,06,15,01,24,7.30
2012,06,15,01,25,7.30
2012,06,15,01,26,7.30
2012,06,15,01,27,7.30
2012,06,15,01,28,7.30
2012,06,15,01,29,7.30
2012,06,15,01,30,7.30
2012,06,15,01,31,7.30
2012,06,15,01,32,7.30
2012,06,15,01,33,7.30
2012,06,15,01,34,7.30
2012,06,15,01,35,7.30
2012,06,15,01,36,7.30
2012,06,15,01,37,7.30
2012,06,15,01,38,7.30
2012,06,15,01,39,7.30
2012,06,15,01,40,7.30
2012,06,15,01,41,7.30
2012,06,15,01,42,7.30
2012,06,15,01,43,7.20
2012,06,15,01,44,7.20
2012,06,15,01,45,7.20
2012,06,15,01,46,7.20
2012,06,15,01,47,7.20
2012,06,15,01,48,7.20
2012,06,15,01,49,7.20
2012,06,15,01,50,7.20
2012,06,15,01,51,7.10
2012,06,15,01,52,7.10
2012,06,15,01,53,7.10
2012,06,15,01,54,7.00
2012,06,15,01,55,7.00
2012,06,15,01,56,7.00
2012,06,15,01,57,6.90
2012,06,15,01,58,6.90
2012,06,15,01,59,6.90
2012,06,15,02,00,6.90
2012,06,15,02,01,6.90
2012,06,15,02,02,6.90
2012,06,15,02,03,6.90
2012,06,15,02,04,6.90
2012,06,15,02,05,6.80
2012,06,15,02,06,6.80
2012,06,15,02,07,6.80
2012,06,15,02,08,6.80
2012,06,15,02,09,6.80
2012,06,15,02,10,6.80
2012,06,15,02,11,6.80
2012,06,15,02,12,6.80
2012,06,15,02,13,6.80
2012,06,15,02,14,6.80
2012,06,15,02,15,6.80
2012,06,15,02,16,6.80
2012,06,15,02,17,6.80
2012,06,15,02,18,6.80
2012,06,15,02,19,6.80
2012,06,15,02,20,6.70
2012,06,15,02,21,6.70
2012,06,15,02,22,6.70
2012,06,15,02,23,6.70
2012,06,15,02,24,6.70
2012,06,15,02,25,6.70
2012,06,15,02,26,6.70
2012,06,15,02,27,6.70
2012,06,15,02,28,6.70
2012,06,15,02,29,6.70
2012,06,15,02,30,6.70
2012,06,15,02,31,6.70
2012,06,15,02,32,6.70
2012,06,15,02,33,6.70
2012,06,15,02,34,6.70
2012,06,15,02,35,6.70
2012,06,15,02,36,6.70
2012,06,15,02,37,6.70
2012,06,15,02,38,6.70
2012,06,15,02,39,6.60
2012,06,15,02,40,6.60
2012,06,15,02,41,6.60
2012,06,15,02,42,6.60
2012,06,15,02,43,6.60
2012,06,15,02,44,6.60
2012,06,15,02,45,6.60
2012,06,15,02,46,6.60
2012,06,15,02,47,6.60
2012,06,15,02,48,6.60
2012,06,15,02,49,6.60
2012,06,15,02,50,6.60
2012,06,15,02,51,6.60
2012,06,15,02,52,6.60
2012,06,15,02,53,6.60
2012,06,15,02,54,6.60
2012,06,15,02,55,6.60
2012,06,15,02,56,6.60
2012,06,15,02,57,6.60
2012,06,15,02,58,6.60
2012,06,15,02,59,6.60
2012,06,15,03,00,6.60
2012,06,15,03,01,6.60
2012,06,15,03,02,6.60
2012,06,15,03,03,6.60
2012,06,15,03,04,6.60
2012,06,15,03,05,6.50
2012,06,15,03,06,6.50
2012,06,15,03,07,6.50
2012,06,15,03,08,6.40
2012,06,15,03,09,6.40
2012,06,15,03,10,6.40
2012,06,15,03,11,6.40
2012,06,15,03,12,6.40
2012,06,15,03,13,6.40
2012,06,15,03,14,6.40
2012,06,15,03,15,6.40
2012,06,15,03,16,6.40
2012,06,15,03,17,6.40
2012,06,15,03,18,6.40
2012,06,15,03,19,6.40
2012,06,15,03,20,6.50
2012,06,15,03,21,6.50
2012,06,15,03,22,6.50
2012,06,15,03,23,6.60
2012,06,15,03,24,6.60
2012,06,15,03,25,6.60
2012,06,15,03,26,6.50
2012,06,15,03,27,6.50
2012,06,15,03,28,6.50
2012,06,15,03,29,6.50
2012,06,15,03,30,6.50
2012,06,15,03,31,6.40
2012,06,15,03,32,6.40
2012,06,15,03,33,6.40
2012,06,15,03,34,6.40
2012,06,15,03,35,6.40
2012,06,15,03,36,6.40
2012,06,15,03,37,6.40
2012,06,15,03,38,6.40
2012,06,15,03,39,6.30
2012,06,15,03,40,6.30
2012,06,15,03,41,6.30
2012,06,15,03,42,6.30
2012,06,15,03,43,6.30
2012,06,15,03,44,6.40
2012,06,15,03,45,6.40
2012,06,15,03,46,6.50
2012,06,15,03,47,6.50
2012,06,15,03,48,6.60
2012,06,15,03,49,6.60
2012,06,15,03,50,6.60
2012,06,15,03,51,6.60
2012,06,15,03,52,6.60
2012,06,15,03,53,6.70
2012,06,15,03,54,6.70
2012,06,15,03,55,6.70
2012,06,15,03,56,6.70
2012,06,15,03,57,6.70
2012,06,15,03,58,6.70
2012,06,15,03,59,6.70
2012,06,15,04,00,6.80
2012,06,15,04,01,6.80
2012,06,15,04,02,6.80
2012,06,15,04,03,6.80
2012,06,15,04,04,6.80
2012,06,15,04,05,6.80
2012,06,15,04,06,6.80
2012,06,15,04,07,6.80
2012,06,15,04,08,6.80
2012,06,15,04,09,6.80
2012,06,15,04,10,6.80
2012,06,15,04,11,6.80
2012,06,15,04,12,6.80
2012,06,15,04,13,6.80
2012,06,15,04,14,6.80
2012,06,15,04,15,6.70
2012,06,15,04,16,6.70
2012,06,15,04,17,6.70
2012,06,15,04,18,6.70
2012,06,15,04,19,6.70
2012,06,15,04,20,6.70
2012,06,15,04,21,6.70
2012,06,15,04,22,6.70
2012,06,15,04,23,6.60
2012,06,15,04,24,6.60
2012,06,15,04,25,6.60
2012,06,15,04,26,6.60
2012,06,15,04,27,6.60
2012,06,15,04,28,6.60
2012,06,15,04,29,6.60
2012,06,15,04,30,6.60
2012,06,15,04,31,6.60
2012,06,15,04,32,6.60
2012,06,15,04,33,6.60
2012,06,15,04,34,6.70
2012,06,15,04,35,6.70
2012,06,15,04,36,6.70
2012,06,15,04,37,6.70
2012,06,15,04,38,6.70
2012,06,15,04,39,6.70
2012,06,15,04,40,6.70
2012,06,15,04,41,6.70
2012,06,15,04,42,6.70
2012,06,15,04,43,6.70
2012,06,15,04,44,6.70
2012,06,15,04,45,6.70
2012,06,15,04,46,6.70
2012,06,15,04,47,6.70
2012,06,15,04,48,6.70
2012,06,15,04,49,6.70
2012,06,15,04,50,6.70
2012,06,15,04,51,6.70
2012,06,15,04,52,6.70
2012,06,15,04,53,6.70
2012,06,15,04,54,6.70
2012,06,15,04,55,6.70
2012,06,15,04,56,6.70
2012,06,15,04,57,6.80
2012,06,15,04,58,6.80
2012,06,15,04,59,6.80
2012,06,15,05,00,6.70
2012,06,15,05,01,6.70
2012,06,15,05,02,6.70
2012,06,15,05,03,6.70
2012,06,15,05,04,6.70
2012,06,15,05,05,6.70
2012,06,15,05,06,6.70
2012,06,15,05,07,6.70
2012,06,15,05,08,6.70
2012,06,15,05,09,6.60
2012,06,15,05,10,6.60
2012,06,15,05,11,6.60
2012,06,15,05,12,6.60
2012,06,15,05,13,6.60
2012,06,15,05,14,6.60
2012,06,15,05,15,6.50
2012,06,15,05,16,6.50
2012,06,15,05,17,6.40
2012,06,15,05,18,6.40
2012,06,15,05,19,6.40
2012,06,15,05,20,6.40
2012,06,15,05,21,6.40
2012,06,15,05,22,6.40
2012,06,15,05,23,6.40
2012,06,15,05,24,6.40
2012,06,15,05,25,6.30
2012,06,15,05,26,6.30
2012,06,15,05,27,6.40
2012,06,15,05,28,6.40
2012,06,15,05,29,6.30
2012,06,15,05,30,6.30
2012,06,15,05,31,6.30
2012,06,15,05,32,6.30
2012,06,15,05,33,6.30
2012,06,15,05,34,6.30
2012,06,15,05,35,6.30
2012,06,15,05,36,6.30
2012,06,15,05,37,6.30
2012,06,15,05,38,6.30
2012,06,15,05,39,6.30
2012,06,15,05,40,6.30
2012,06,15,05,41,6.30
2012,06,15,05,42,6.40
2012,06,15,05,43,6.40
2012,06,15,05,44,6.40
2012,06,15,05,45,6.40
2012,06,15,05,46,6.40
2012,06,15,05,47,6.40
2012,06,15,05,48,6.50
2012,06,15,05,49,6.50
2012,06,15,05,50,6.60
2012,06,15,05,51,6.60
2012,06,15,05,52,6.70
2012,06,15,05,53,6.70
2012,06,15,05,54,6.70
2012,06,15,05,55,6.70
2012,06,15,05,56,6.70
2012,06,15,05,57,6.80
2012,06,15,05,58,6.80
2012,06,15,05,59,6.80
2012,06,15,06,00,6.80
2012,06,15,06,01,6.90
2012,06,15,06,02,6.90
2012,06,15,06,03,7.00
2012,06,15,06,04,7.00
2012,06,15,06,05,7.00
2012,06,15,06,06,7.10
2012,06,15,06,07,7.10
2012,06,15,06,08,7.10
2012,06,15,06,09,7.10
2012,06,15,06,10,7.10
2012,06,15,06,11,7.20
2012,06,15,06,12,7.20
2012,06,15,06,13,7.20
2012,06,15,06,14,7.20
2012,06,15,06,15,7.30
2012,06,15,06,16,7.30
2012,06,15,06,17,7.30
2012,06,15,06,18,7.30
2012,06,15,06,19,7.40
2012,06,15,06,20,7.40
2012,06,15,06,21,7.40
2012,06,15,06,22,7.50
2012,06,15,06,23,7.50
2012,06,15,06,24,7.50
2012,06,15,06,25,7.60
2012,06,15,06,26,7.60
2012,06,15,06,27,7.60
2012,06,15,06,28,7.60
2012,06,15,06,29,7.70
2012,06,15,06,30,7.70
2012,06,15,06,31,7.80
2012,06,15,06,32,7.80
2012,06,15,06,33,7.90
2012,06,15,06,34,7.90
2012,06,15,06,35,7.90
2012,06,15,06,36,7.90
2012,06,15,06,37,8.00
2012,06,15,06,38,8.00
2012,06,15,06,39,8.00
2012,06,15,06,40,8.10
2012,06,15,06,41,8.10
2012,06,15,06,42,8.10
2012,06,15,06,43,8.10
2012,06,15,06,44,8.20
2012,06,15,06,45,8.20
2012,06,15,06,46,8.20
2012,06,15,06,47,8.30
2012,06,15,06,48,8.30
2012,06,15,06,49,8.40
2012,06,15,06,50,8.40
2012,06,15,06,51,8.50
2012,06,15,06,52,8.50
2012,06,15,06,53,8.60
2012,06,15,06,54,8.60
2012,06,15,06,55,8.70
2012,06,15,06,56,8.70
2012,06,15,06,57,8.80
2012,06,15,06,58,8.80
2012,06,15,06,59,8.80
2012,06,15,07,00,8.90
2012,06,15,07,01,8.90
2012,06,15,07,02,9.00
2012,06,15,07,03,9.00
2012,06,15,07,04,9.10
2012,06,15,07,05,9.20
2012,06,15,07,06,9.30
2012,06,15,07,07,9.30
2012,06,15,07,08,9.40
2012,06,15,07,09,9.50
2012,06,15,07,10,9.50
2012,06,15,07,11,9.60
2012,06,15,07,12,9.60
2012,06,15,07,13,9.70
2012,06,15,07,14,9.70
2012,06,15,07,15,9.80
2012,06,15,07,16,9.90
2012,06,15,07,17,10.00
2012,06,15,07,18,10.00
2012,06,15,07,19,10.10
2012,06,15,07,20,10.20
2012,06,15,07,21,10.30
2012,06,15,07,22,10.40
2012,06,15,07,23,10.50
2012,06,15,07,24,10.60
2012,06,15,07,25,10.60
2012,06,15,07,26,10.70
2012,06,15,07,27,10.70
2012,06,15,07,28,10.80
2012,06,15,07,29,10.80
2012,06,15,07,30,10.90
2012,06,15,07,31,10.90
2012,06,15,07,32,10.90
2012,06,15,07,33,11.00
2012,06,15,07,34,11.00
2012,06,15,07,35,11.10
2012,06,15,07,36,11.10
2012,06,15,07,37,11.10
2012,06,15,07,38,11.10
2012,06,15,07,39,11.10
2012,06,15,07,40,11.10
2012,06,15,07,41,11.10
2012,06,15,07,42,11.10
2012,06,15,07,43,11.10
2012,06,15,07,44,11.10
2012,06,15,07,45,11.10
2012,06,15,07,46,11.10
2012,06,15,07,47,11.10
2012,06,15,07,48,11.10
2012,06,15,07,49,11.10
2012,06,15,07,50,11.10
2012,06,15,07,51,11.10
2012,06,15,07,52,11.10
2012,06,15,07,53,11.10
2012,06,15,07,54,11.20
2012,06,15,07,55,11.20
2012,06,15,07,56,11.20
2012,06,15,07,57,11.20
2012,06,15,07,58,11.20
2012,06,15,07,59,11.20
2012,06,15,08,00,11.20
2012,06,15,08,01,11.20
2012,06,15,08,02,11.20
2012,06,15,08,03,11.20
2012,06,15,08,04,11.20
2012,06,15,08,05,11.30
2012,06,15,08,06,11.30
2012,06,15,08,07,11.30
2012,06,15,08,08,11.30
2012,06,15,08,09,11.30
2012,06,15,08,10,11.30
2012,06,15,08,11,11.30
2012,06,15,08,12,11.30
2012,06,15,08,13,11.30
2012,06,15,08,14,11.30
2012,06,15,08,15,11.30
2012,06,15,08,16,11.30
2012,06,15,08,17,11.30
2012,06,15,08,18,11.30
2012,06,15,08,19,11.40
2012,06,15,08,20,11.40
2012,06,15,08,21,11.40
2012,06,15,08,22,11.50
2012,06,15,08,23,11.50
2012,06,15,08,24,11.60
2012,06,15,08,25,11.60
2012,06,15,08,26,11.60
2012,06,15,08,27,11.70
2012,06,15,08,28,11.70
2012,06,15,08,29,11.70
2012,06,15,08,30,11.70
2012,06,15,08,31,11.70
2012,06,15,08,32,11.80
2012,06,15,08,33,11.80
2012,06,15,08,34,11.90
2012,06,15,08,35,11.90
2012,06,15,08,36,11.90
2012,06,15,08,37,11.90
2012,06,15,08,38,11.90
2012,06,15,08,39,11.90
2012,06,15,08,40,11.90
2012,06,15,08,41,11.90
2012,06,15,08,42,11.90
2012,06,15,08,43,11.90
2012,06,15,08,44,11.90
2012,06,15,08,45,11.90
2012,06,15,08,46,11.90
2012,06,15,08,47,12.00
2012,06,15,08,48,12.00
2012,06,15,08,49,12.10
2012,06,15,08,50,12.10
2012,06,15,08,51,12.10
2012,06,15,08,52,12.10
2012,06,15,08,53,12.10
2012,06,15,08,54,12.10
2012,06,15,08,55,12.10
2012,06,15,08,56,12.20
2012,06,15,08,57,12.20
2012,06,15,08,58,12.30
2012,06,15,08,59,12.30
2012,06,15,09,00,12.30
2012,06,15,09,01,12.30
2012,06,15,09,02,12.30
2012,06,15,09,03,12.30
2012,06,15,09,04,12.30
2012,06,15,09,05,12.30
2012,06,15,09,06,12.30
2012,06,15,09,07,12.30
2012,06,15,09,08,12.30
2012,06,15,09,09,12.30
2012,06,15,09,10,12.40
2012,06,15,09,11,12.40
2012,06,15,09,12,12.40
2012,06,15,09,13,12.50
2012,06,15,09,14,12.50
2012,06,15,09,15,12.60
2012,06,15,09,16,12.70
2012,06,15,09,17,12.70
2012,06,15,09,18,12.80
2012,06,15,09,19,12.80
2012,06,15,09,20,12.80
2012,06,15,09,21,12.90
2012,06,15,09,22,12.90
2012,06,15,09,23,12.90
2012,06,15,09,24,12.90
2012,06,15,09,25,12.90
2012,06,15,09,26,12.90
2012,06,15,09,27,13.00
2012,06,15,09,28,13.00
2012,06,15,09,29,13.10
2012,06,15,09,30,13.10
2012,06,15,09,31,13.20
2012,06,15,09,32,13.20
2012,06,15,09,33,13.20
2012,06,15,09,34,13.20
2012,06,15,09,35,13.20
2012,06,15,09,36,13.30
2012,06,15,09,37,13.20
2012,06,15,09,38,13.20
2012,06,15,09,39,13.20
2012,06,15,09,40,13.10
2012,06,15,09,41,13.10
2012,06,15,09,42,13.10
2012,06,15,09,43,13.00
2012,06,15,09,44,13.00
2012,06,15,09,45,12.90
2012,06,15,09,46,12.90
2012,06,15,09,47,12.90
2012,06,15,09,48,12.90
2012,06,15,09,49,12.90
2012,06,15,09,50,12.90
2012,06,15,09,51,12.90
2012,06,15,09,52,12.90
2012,06,15,09,53,12.90
2012,06,15,09,54,13.00
2012,06,15,09,55,13.10
2012,06,15,09,56,13.20
2012,06,15,09,57,13.20
2012,06,15,09,58,13.30
2012,06,15,09,59,13.30
2012,06,15,10,00,13.30
2012,06,15,10,01,13.40
2012,06,15,10,02,13.40
2012,06,15,10,03,13.50
2012,06,15,10,04,13.50
2012,06,15,10,05,13.60
2012,06,15,10,06,13.60
2012,06,15,10,07,13.60
2012,06,15,10,08,13.60
2012,06,15,10,09,13.60
2012,06,15,10,10,13.60
2012,06,15,10,11,13.50
2012,06,15,10,12,13.50
2012,06,15,10,13,13.40
2012,06,15,10,14,13.40
2012,06,15,10,15,13.30
2012,06,15,10,16,13.30
2012,06,15,10,17,13.30
2012,06,15,10,18,13.30
2012,06,15,10,19,13.30
2012,06,15,10,20,13.30
2012,06,15,10,21,13.30
2012,06,15,10,22,13.30
2012,06,15,10,23,13.30
2012,06,15,10,24,13.40
2012,06,15,10,25,13.40
2012,06,15,10,26,13.40
2012,06,15,10,27,13.40
2012,06,15,10,28,13.40
2012,06,15,10,29,13.50
2012,06,15,10,30,13.50
2012,06,15,10,31,13.50
2012,06,15,10,32,13.50
2012,06,15,10,33,13.50
2012,06,15,10,34,13.50
2012,06,15,10,35,13.50
2012,06,15,10,36,13.50
2012,06,15,10,37,13.60
2012,06,15,10,38,13.70
2012,06,15,10,39,13.80
2012,06,15,10,40,13.90
2012,06,15,10,41,13.90
2012,06,15,10,42,13.90
2012,06,15,10,43,13.90
2012,06,15,10,44,13.90
2012,06,15,10,45,13.80
2012,06,15,10,46,13.80
2012,06,15,10,47,13.80
2012,06,15,10,48,13.80
2012,06,15,10,49,13.80
2012,06,15,10,50,13.80
2012,06,15,10,51,13.80
2012,06,15,10,52,13.80
2012,06,15,10,53,13.80
2012,06,15,10,54,13.90
2012,06,15,10,55,13.90
2012,06,15,10,56,13.90
2012,06,15,10,57,14.00
2012,06,15,10,58,13.90
2012,06,15,10,59,13.90
2012,06,15,11,00,13.90
2012,06,15,11,01,13.90
2012,06,15,11,02,13.90
2012,06,15,11,03,13.90
2012,06,15,11,04,13.80
2012,06,15,11,05,13.80
2012,06,15,11,06,13.80
2012,06,15,11,07,13.80
2012,06,15,11,08,13.80
2012,06,15,11,09,13.90
2012,06,15,11,10,13.90
2012,06,15,11,11,14.00
2012,06,15,11,12,14.00
2012,06,15,11,13,14.10
2012,06,15,11,14,14.10
2012,06,15,11,15,14.10
2012,06,15,11,16,14.10
2012,06,15,11,17,14.10
2012,06,15,11,18,14.10
2012,06,15,11,19,14.10
2012,06,15,11,20,14.10
2012,06,15,11,21,14.10
2012,06,15,11,22,14.10
2012,06,15,11,23,14.10
2012,06,15,11,24,14.10
2012,06,15,11,25,14.00
2012,06,15,11,26,14.00
2012,06,15,11,27,14.10
2012,06,15,11,28,14.20
2012,06,15,11,29,14.20
2012,06,15,11,30,14.30
2012,06,15,11,31,14.40
2012,06,15,11,32,14.50
2012,06,15,11,33,14.60
2012,06,15,11,34,14.70
2012,06,15,11,35,14.80
2012,06,15,11,36,14.90
2012,06,15,11,37,15.00
2012,06,15,11,38,15.00
2012,06,15,11,39,15.00
2012,06,15,11,40,15.00
2012,06,15,11,41,15.00
2012,06,15,11,42,15.00
2012,06,15,11,43,15.00
2012,06,15,11,44,14.90
2012,06,15,11,45,14.90
2012,06,15,11,46,14.90
2012,06,15,11,47,14.90
2012,06,15,11,48,14.90
2012,06,15,11,49,14.90
2012,06,15,11,50,15.00
2012,06,15,11,51,15.00
2012,06,15,11,52,15.10
2012,06,15,11,53,15.10
2012,06,15,11,54,15.20
2012,06,15,11,55,15.20
2012,06,15,11,56,15.30
2012,06,15,11,57,15.40
2012,06,15,11,58,15.50
2012,06,15,11,59,15.50
2012,06,15,12,00,15.50
2012,06,15,12,01,15.50
2012,06,15,12,02,15.40
2012,06,15,12,03,15.40
2012,06,15,12,04,15.30
2012,06,15,12,05,15.30
2012,06,15,12,06,15.30
2012,06,15,12,07,15.30
2012,06,15,12,08,15.30
2012,06,15,12,09,15.30
2012,06,15,12,10,15.30
2012,06,15,12,11,15.30
2012,06,15,12,12,15.30
2012,06,15,12,13,15.30
2012,06,15,12,14,15.30
2012,06,15,12,15,15.30
2012,06,15,12,16,15.30
2012,06,15,12,17,15.30
2012,06,15,12,18,15.30
2012,06,15,12,19,15.30
2012,06,15,12,20,15.40
2012,06,15,12,21,15.40
2012,06,15,12,22,15.40
2012,06,15,12,23,15.50
2012,06,15,12,24,15.50
2012,06,15,12,25,15.60
2012,06,15,12,26,15.70
2012,06,15,12,27,15.70
2012,06,15,12,28,15.80
2012,06,15,12,29,15.90
2012,06,15,12,30,16.00
2012,06,15,12,31,16.00
2012,06,15,12,32,16.10
2012,06,15,12,33,16.10
2012,06,15,12,34,16.10
2012,06,15,12,35,16.10
2012,06,15,12,36,16.00
2012,06,15,12,37,16.00
2012,06,15,12,38,16.00
2012,06,15,12,39,16.00
2012,06,15,12,40,16.10
2012,06,15,12,41,16.10
2012,06,15,12,42,16.10
2012,06,15,12,43,16.20
2012,06,15,12,44,16.30
2012,06,15,12,45,16.40
2012,06,15,12,46,16.50
2012,06,15,12,47,16.50
2012,06,15,12,48,16.50
2012,06,15,12,49,16.50
2012,06,15,12,50,16.50
2012,06,15,12,51,16.40
2012,06,15,12,52,16.40
2012,06,15,12,53,16.40
2012,06,15,12,54,16.40
2012,06,15,12,55,16.30
2012,06,15,12,56,16.30
2012,06,15,12,57,16.30
2012,06,15,12,58,16.20
2012,06,15,12,59,16.10
2012,06,15,13,00,16.10
2012,06,15,13,01,16.10
2012,06,15,13,02,16.10
2012,06,15,13,03,16.10
2012,06,15,13,04,16.10
2012,06,15,13,05,16.20
2012,06,15,13,06,16.20
2012,06,15,13,07,16.30
2012,06,15,13,08,16.30
2012,06,15,13,09,16.40
2012,06,15,13,10,16.40
2012,06,15,13,11,16.50
2012,06,15,13,12,16.50
2012,06,15,13,13,16.60
2012,06,15,13,14,16.70
2012,06,15,13,15,16.70
2012,06,15,13,16,16.60
2012,06,15,13,17,16.60
2012,06,15,13,18,16.60
2012,06,15,13,19,16.60
2012,06,15,13,20,16.60
2012,06,15,13,21,16.60
2012,06,15,13,22,16.60
2012,06,15,13,23,16.60
2012,06,15,13,24,16.60
2012,06,15,13,25,16.60
2012,06,15,13,26,16.50
2012,06,15,13,27,16.50
2012,06,15,13,28,16.60
2012,06,15,13,29,16.70
2012,06,15,13,30,16.70
2012,06,15,13,31,16.80
2012,06,15,13,32,16.80
2012,06,15,13,33,16.80
2012,06,15,13,34,16.80
2012,06,15,13,35,16.90
2012,06,15,13,36,16.90
2012,06,15,13,37,17.00
2012,06,15,13,38,17.10
2012,06,15,13,39,17.20
2012,06,15,13,40,17.20
2012,06,15,13,41,17.30
